User: anonymous   Login
Location: New York
(40.7127°N, 74.0060°W)
Time: 18:34:26
(UTC-04:00)
Language:

STRAND 1 - Orbit

View from above orbital plane
View from above orbital plane
View from above satellite
View from above satellite

Ground track
Ground track

The orbit data is extracted from the following two-line orbital elements,

1 39090U 13009E   24115.48729372  .00001254  00000-0  44609-3 0  9997
2 39090  98.3829 305.2531 0009874  57.7543 302.4599 14.35998467584555
Epoch (UTC): 24 April 2024 11:41:42
Eccentricity: 0.0009874
inclination: 98.3829°
perigee height: 764 km
apogee height: 779 km
right ascension of ascending node: 305.2531°
argument of perigee: 57.7543°
revolutions per day: 14.35998467
mean anomaly at epoch: 302.4599°
orbit number at epoch: 58455

The dashed part of the orbit path shows where the satellite is in the earth's shadow,  

DLR